Weather History for Highgate, VT

Change the Weather History Date:

Monday, March 18, 2013

  Actual Average (KPBG) Record (KPBG)
Temperature  
Mean Temperature 22 °F 31 °F  
Max Temperature 34 °F 41 °F 70 °F (2012)
Min Temperature 9 °F 21 °F -8 °F (1993)
Degree Days  
Heating Degree Days 44 34  
Month to date heating degree days 659  
Since 1 July heating degree days 6271  
Cooling Degree Days 0 0  
Month to date cooling degree days 0  
Year to date cooling degree days 0  
Moisture  
Dew Point 4 °F    
Average Humidity 48    
Maximum Humidity 81    
Minimum Humidity 24    
Precipitation  
Precipitation 0.00 in - 0.78 in (1973)
Month to date precipitation  
Year to date precipitation  
Sea Level Pressure  
Sea Level Pressure 30.33 in    
Wind  
Wind Speed 2 mph (East)    
Max Wind Speed 7 mph    
Max Gust Speed -    
Visibility 10 miles    
Events      
T = Trace of Precipitation, MM = Missing Value Source: NWS Daily Summary

Daily Weather History Graph

Daily Weather History Graph

Search for Another Location

Airport:

Trip Planner

Search our weather history database for the weather conditions in past years. The results will help you decide how hot, cold, wet, or windy it might be!

Date:

Astronomy

Mar. 18, 2013 Rise Set
Actual Time 6:58 AM EDT 7:02 PM EDT
Civil Twilight 6:29 AM EDT 7:31 PM EDT
Nautical Twilight 5:55 AM EDT 8:06 PM EDT
Astronomical Twilight 5:20 AM EDT 8:41 PM EDT
Moon 10:41 AM EDT (3/18) 1:14 AM EDT (3/18)
Length of Visible Light 13h 02m
Length of Day
12h 03m
Waxing Crescent, 40% of the Moon is Illuminated
Mar 18
Waxing Crescent
Mar 19
First Quarter
Mar 27
Full
Apr 3
Last Quarter
Apr 10
New

Hourly Weather History & Observations

Time (EDT) Temp. Windchill Dew Point Humidity Pressure Visibility Wind Dir Wind Speed Gust Speed Precip Events Conditions
12:15 AM 16.7 °F - 1.4 °F 51% 30.35 in 10.0 mi Calm Calm - N/A   Clear
12:35 AM 14.4 °F - 3.0 °F 61% 30.36 in 10.0 mi Calm Calm - N/A   Clear
12:55 AM 11.8 °F - 2.8 °F 67% 30.37 in 10.0 mi Calm Calm - N/A   Clear
1:15 AM 12.7 °F - 3.4 °F 66% 30.38 in 10.0 mi Calm Calm - N/A   Clear
1:35 AM 14.4 °F - 3.9 °F 63% 30.38 in 10.0 mi Calm Calm - N/A   Clear
1:55 AM 13.3 °F - 3.6 °F 65% 30.38 in 10.0 mi Calm Calm - N/A   Clear
2:15 AM 12.7 °F - 2.3 °F 63% 30.39 in 10.0 mi Calm Calm - N/A   Clear
2:35 AM 9.3 °F - 1.8 °F 71% 30.39 in 10.0 mi Calm Calm - N/A   Clear
2:55 AM 9.3 °F - 2.1 °F 73% 30.38 in 10.0 mi Calm Calm - N/A   Clear
3:15 AM 9.3 °F - 2.5 °F 74% 30.38 in 10.0 mi Calm Calm - N/A   Clear
3:35 AM 9.5 °F 3.0 °F 2.8 °F 74% 30.38 in 10.0 mi SSE 3.5 mph - N/A   Clear
3:55 AM 9.3 °F - 2.7 °F 74% 30.38 in 10.0 mi Calm Calm - N/A   Clear
4:15 AM 9.3 °F - 3.6 °F 77% 30.38 in 10.0 mi Calm Calm - N/A   Clear
4:35 AM 9.9 °F 3.4 °F 4.1 °F 78% 30.38 in 10.0 mi ESE 3.5 mph - N/A   Clear
4:55 AM 9.3 °F - 3.6 °F 77% 30.39 in 10.0 mi Calm Calm - N/A   Clear
5:15 AM 9.3 °F - 3.9 °F 79% 30.39 in 10.0 mi Calm Calm - N/A   Clear
5:35 AM 9.3 °F 2.8 °F 3.9 °F 79% 30.40 in 10.0 mi SE 3.5 mph - N/A   Clear
5:55 AM 9.3 °F - 4.1 °F 79% 30.41 in 10.0 mi Calm Calm - N/A   Clear
6:15 AM 9.3 °F - 3.9 °F 79% 30.42 in 10.0 mi Calm Calm - N/A   Clear
6:35 AM 9.3 °F - 4.5 °F 81% 30.43 in 10.0 mi Calm Calm - N/A   Clear
6:55 AM 9.3 °F - 4.5 °F 81% 30.43 in 10.0 mi Calm Calm - N/A   Clear
7:15 AM 9.3 °F - 4.1 °F 79% 30.43 in 10.0 mi Calm Calm - N/A   Clear
7:35 AM 9.3 °F - 4.1 °F 79% 30.43 in 10.0 mi Calm Calm - N/A   Clear
7:55 AM 11.8 °F - 5.9 °F 77% 30.43 in 10.0 mi Calm Calm - N/A   Clear
8:15 AM 14.4 °F 8.6 °F 7.7 °F 75% 30.43 in 10.0 mi SE 3.5 mph - N/A   Clear
8:35 AM 15.6 °F - 7.5 °F 70% 30.44 in 10.0 mi Calm Calm - N/A   Clear
8:55 AM 17.6 °F - 7.3 °F 64% 30.45 in 10.0 mi Calm Calm - N/A   Clear
9:15 AM 19.8 °F - 6.6 °F 57% 30.44 in 10.0 mi Calm Calm - N/A   Clear
9:35 AM 20.8 °F - 4.5 °F 49% 30.45 in 10.0 mi Calm Calm - N/A   Clear
9:55 AM 22.1 °F - 3.4 °F 45% 30.45 in 10.0 mi Calm Calm - N/A   Clear
10:15 AM 24.4 °F 18.6 °F 3.0 °F 40% 30.44 in 10.0 mi East 4.6 mph - N/A   Clear
10:35 AM 24.6 °F 18.8 °F -0.0 °F 34% 30.44 in 10.0 mi ESE 4.6 mph - N/A   Clear
10:55 AM 27.0 °F 21.6 °F 1.6 °F 34% 30.44 in 10.0 mi SSE 4.6 mph - N/A   Clear
11:15 AM 27.0 °F 23.0 °F 5.2 °F 40% 30.43 in 10.0 mi SW 3.5 mph - N/A   Clear
11:35 AM 27.3 °F 22.0 °F 3.4 °F 36% 30.43 in 10.0 mi South 4.6 mph - N/A   Clear
11:55 AM 29.3 °F 24.3 °F 0.3 °F 29% 30.43 in 10.0 mi SSW 4.6 mph - N/A   Clear
12:15 PM 29.3 °F 25.6 °F -0.4 °F 28% 30.42 in 10.0 mi SSW 3.5 mph - N/A   Clear
12:35 PM 29.8 °F 26.3 °F 1.4 °F 30% 30.41 in 10.0 mi SE 3.5 mph - N/A   Clear
12:55 PM 29.3 °F 25.6 °F 1.2 °F 30% 30.41 in 10.0 mi North 3.5 mph - N/A   Clear
1:15 PM 31.6 °F - 1.2 °F 27% 30.39 in 10.0 mi Calm Calm - N/A   Clear
1:35 PM 32.0 °F 28.7 °F 2.8 °F 29% 30.37 in 10.0 mi North 3.5 mph - N/A   Clear
1:55 PM 32.0 °F - 2.8 °F 29% 30.36 in 10.0 mi Calm Calm - N/A   Clear
2:15 PM 31.3 °F 26.6 °F 3.2 °F 30% 30.35 in 10.0 mi WNW 4.6 mph - N/A   Clear
2:35 PM 32.0 °F 25.6 °F 3.6 °F 30% 30.33 in 10.0 mi North 6.9 mph - N/A   Clear
2:55 PM 32.4 °F 27.9 °F 4.3 °F 31% 30.32 in 10.0 mi WNW 4.6 mph - N/A   Clear
3:15 PM 33.8 °F 28.6 °F 6.8 °F 32% 30.30 in 10.0 mi North 5.8 mph - N/A   Clear
3:35 PM 34.2 °F 30.0 °F 8.2 °F 34% 30.29 in 10.0 mi NNE 4.6 mph - N/A   Clear
3:55 PM 34.2 °F 28.2 °F 3.0 °F 27% 30.29 in 10.0 mi NE 6.9 mph - N/A   Clear
4:15 PM 34.2 °F 31.2 °F 4.1 °F 28% 30.28 in 10.0 mi NNE 3.5 mph - N/A   Clear
4:35 PM 34.2 °F 30.0 °F 0.3 °F 24% 30.27 in 10.0 mi ENE 4.6 mph - N/A   Clear
4:55 PM 34.2 °F 29.0 °F 0.9 °F 24% 30.25 in 10.0 mi East 5.8 mph - N/A   Clear
5:15 PM 34.2 °F 31.2 °F 0.7 °F 24% 30.24 in 10.0 mi East 3.5 mph - N/A   Clear
5:35 PM 34.2 °F 30.0 °F 0.9 °F 24% 30.23 in 10.0 mi ENE 4.6 mph - N/A   Clear
5:55 PM 34.2 °F 31.2 °F 1.4 °F 25% 30.23 in 10.0 mi ENE 3.5 mph - N/A   Clear
6:15 PM 34.2 °F 30.0 °F 2.3 °F 26% 30.22 in 10.0 mi ENE 4.6 mph - N/A   Clear
6:35 PM 32.2 °F 26.7 °F 1.6 °F 27% 30.20 in 10.0 mi ENE 5.8 mph - N/A   Clear
6:55 PM 32.0 °F 26.4 °F 1.9 °F 28% 30.18 in 10.0 mi ENE 5.8 mph - N/A   Clear
7:15 PM 31.6 °F 28.3 °F 2.7 °F 29% 30.18 in 10.0 mi NE 3.5 mph - N/A   Clear
7:35 PM 30.7 °F - 2.7 °F 30% 30.18 in 10.0 mi Calm Calm - N/A   Clear
7:55 PM 30.6 °F - 2.3 °F 30% 30.19 in 10.0 mi Calm Calm - N/A   Clear
8:15 PM 30.0 °F 26.5 °F 5.4 °F 35% 30.18 in 10.0 mi ENE 3.5 mph - N/A   Clear
8:35 PM 29.7 °F 23.7 °F 5.9 °F 37% 30.17 in 10.0 mi East 5.8 mph - N/A   Clear
8:55 PM 29.5 °F 23.4 °F 6.4 °F 38% 30.16 in 10.0 mi East 5.8 mph - N/A   Clear
9:15 PM 29.5 °F 25.9 °F 6.4 °F 38% 30.17 in 10.0 mi ENE 3.5 mph - N/A   Clear
9:35 PM 30.0 °F - 6.1 °F 36% 30.17 in 10.0 mi Calm Calm - N/A   Clear
9:55 PM 29.3 °F 24.3 °F 8.1 °F 41% 30.15 in 10.0 mi East 4.6 mph - N/A   Clear
10:15 PM 30.0 °F 25.2 °F 6.8 °F 38% 30.14 in 10.0 mi East 4.6 mph - N/A   Clear
10:35 PM 30.7 °F 27.3 °F 7.3 °F 37% 30.13 in 10.0 mi East 3.5 mph - N/A   Mostly Cloudy
10:55 PM 31.5 °F 28.1 °F 7.2 °F 36% 30.11 in 10.0 mi East 3.5 mph - N/A   Overcast
11:15 PM 32.0 °F 25.6 °F 5.5 °F 33% 30.09 in 10.0 mi East 6.9 mph - N/A   Overcast
11:55 PM 34.0 °F 29.8 °F 6.8 °F 32% 30.08 in 10.0 mi ESE 4.6 mph - N/A   Overcast